EW7535 Weather Reports


Display with metric or nautical units.
time (UTC)temp
F
wind
direction
speed
MPH
gust
MPH
rain 1hr
in
rain 24hr
in
rain mn
in
humidity
%
barometer
mb
20260509143036 76 120 0.0 2.0 0.00 0.00 0.00 29 1008.9
20260509141544 74 130 0.0 2.0 0.00 0.00 0.00 30 1008.8
20260509140037 74 120 0.0 1.0 0.00 0.00 0.00 30 1008.8
20260509134548 71 86 0.0 3.0 0.00 0.00 0.00 32 1008.6
20260509133033 67 101 0.0 2.0 0.00 0.00 0.00 35 1008.4
20260509131543 66 88 0.0 2.0 0.00 0.00 0.00 37 1008.4
20260509130041 64 117 0.0 3.0 0.00 0.00 0.00 39 1008.2
20260509124530 64 96 0.0 0.0 0.00 0.00 0.00 39 1008.0
20260509123026 64 106 0.0 2.0 0.00 0.00 0.00 37 1007.9
20260509121522 64 113 0.0 0.0 0.00 0.00 0.00 38 1007.9
20260509120017 64 138 0.0 0.0 0.00 0.00 0.00 39 1007.7
20260509114514 67 138 0.0 0.0 0.00 0.00 0.00 35 1007.6
20260509113009 69 102 0.0 0.0 0.00 0.00 0.00 31 1007.6
20260509111507 69 102 0.0 0.0 0.00 0.00 0.00 31 1007.6
20260509110015 69 102 0.0 1.0 0.00 0.00 0.00 30 1007.4
20260509104506 70 93 0.0 0.0 0.00 0.00 0.00 30 1007.4
20260509103034 69 109 0.0 0.0 0.00 0.00 0.00 30 1007.3
20260509101534 69 108 0.0 3.0 0.00 0.00 0.00 30 1007.5
20260509100035 69 108 0.0 1.0 0.00 0.00 0.00 30 1007.5
20260509094528 70 106 0.0 2.0 0.00 0.00 0.00 30 1007.5
20260509093026 70 112 0.0 0.0 0.00 0.00 0.00 30 1007.5
20260509091525 71 92 2.0 5.0 0.00 0.00 0.00 29 1007.5
20260509090027 72 127 0.0 3.0 0.00 0.00 0.00 29 1007.4
20260509084518 74 122 1.0 3.0 0.00 0.00 0.00 26 1007.5
20260509083019 77 280 0.0 5.0 0.00 0.00 0.00 24 1007.4
20260509081529 76 305 2.0 4.0 0.00 0.00 0.00 24 1007.4
20260509080014 76 296 2.0 4.0 0.00 0.00 0.00 24 1007.5
20260509074549 76 301 3.0 5.0 0.00 0.00 0.00 24 1007.6
20260509073041 76 323 3.0 8.0 0.00 0.00 0.00 24 1007.6
20260509071507 72 309 3.0 5.0 0.00 0.00 0.00 28 1007.7
20260509070005 72 84 0.0 0.0 0.00 0.00 0.00 29 1007.7
20260509064502 73 84 0.0 0.0 0.00 0.00 0.00 25 1007.4
20260509063001 74 84 0.0 0.0 0.00 0.00 0.00 25 1007.4
20260509061502 74 109 0.0 0.0 0.00 0.00 0.00 25 1007.4
20260509054616 79 304 0.0 0.0 0.00 0.00 0.00 21 1007.2
20260509053144 80 304 0.0 5.0 0.00 0.00 0.00 19 1007.1
20260509051557 79 297 0.0 0.0 0.00 0.00 0.00 21 1007.1
20260509050059 82 297 0.0 0.0 0.00 0.00 0.00 18 1007.1
20260509044553 82 357 0.0 2.0 0.00 0.00 0.00 18 1007.0
20260509043056 83 309 2.0 8.0 0.00 0.00 0.00 18 1006.8
20260509041552 83 301 0.0 4.0 0.00 0.00 0.00 18 1006.8
20260509040109 83 300 1.0 5.0 0.00 0.00 0.00 17 1006.6
20260509034521 83 295 3.0 6.0 0.00 0.00 0.00 17 1006.5
20260509033021 83 307 4.0 7.0 0.00 0.00 0.00 17 1006.4
20260509031517 83 307 2.0 6.0 0.00 0.00 0.00 17 1006.3
20260509030027 84 309 4.0 7.0 0.00 0.00 0.00 16 1006.1
20260509024518 85 302 4.0 7.0 0.00 0.00 0.00 15 1005.9
20260509023025 86 302 5.0 8.0 0.00 0.00 0.00 14 1005.7
20260509021546 87 285 3.0 9.0 0.00 0.00 0.00 14 1005.6
20260509020048 89 296 4.0 8.0 0.00 0.00 0.00 13 1005.5
20260509014543 90 297 4.0 11.0 0.00 0.00 0.00 13 1005.4
20260509013057 91 288 5.0 15.0 0.00 0.00 0.00 12 1005.2
20260509011541 91 288 10.0 17.0 0.00 0.00 0.00 12 1005.1
20260509010043 92 307 7.0 18.0 0.00 0.00 0.00 11 1005.3
20260509004540 92 304 10.0 20.0 0.00 0.00 0.00 11 1005.4
20260509003054 92 266 6.0 14.0 0.00 0.00 0.00 11 1005.3
20260509001533 93 303 7.0 13.0 0.00 0.00 0.00 11 1005.4
20260509000033 93 303 8.0 16.0 0.00 0.00 0.00 11 1005.4
20260508234532 92 264 9.0 22.0 0.00 0.00 0.00 11 1005.3
20260508233029 93 301 9.0 16.0 0.00 0.00 0.00 11 1005.5
20260508231527 93 283 9.0 18.0 0.00 0.00 0.00 11 1005.6
20260508230031 92 293 9.0 18.0 0.00 0.00 0.00 12 1005.7
20260508224522 92 255 11.0 19.0 0.00 0.00 0.00 13 1005.8
20260508223020 93 260 9.0 19.0 0.00 0.00 0.00 12 1006.0
20260508221522 92 302 10.0 24.0 0.00 0.00 0.00 13 1006.2
20260508220018 92 262 12.0 24.0 0.00 0.00 0.00 13 1006.3
20260508214512 91 308 5.0 14.0 0.00 0.00 0.00 14 1006.6
20260508213009 91 274 8.0 16.0 0.00 0.00 0.00 14 1006.8
20260508211505 91 295 8.0 16.0 0.00 0.00 0.00 15 1007.0
20260508210004 90 278 6.0 20.0 0.00 0.00 0.00 15 1007.3
20260508204531 90 300 7.0 17.0 0.00 0.00 0.00 15 1007.6
20260508203029 89 312 8.0 19.0 0.00 0.00 0.00 15 1007.8
20260508201523 89 300 8.0 17.0 0.00 0.00 0.00 15 1007.9
20260508200021 89 279 11.0 18.0 0.00 0.00 0.00 15 1008.1
20260508194521 89 299 8.0 25.0 0.00 0.00 0.00 16 1008.4
20260508193015 88 307 9.0 17.0 0.00 0.00 0.00 17 1008.5
20260508191514 87 257 9.0 17.0 0.00 0.00 0.00 18 1008.6
20260508190045 86 286 9.0 18.0 0.00 0.00 0.00 19 1008.9
20260508184547 86 286 9.0 16.0 0.00 0.00 0.00 18 1009.1
20260508183041 86 259 6.0 13.0 0.00 0.00 0.00 19 1009.3
20260508181535 86 221 0.0 1.0 0.00 0.00 0.00 20 1009.5
20260508180033 87 253 0.0 6.0 0.00 0.00 0.00 20 1009.9
20260508174550 83 299 0.0 5.0 0.00 0.00 0.00 22 1010.1
20260508173025 83 255 0.0 3.0 0.00 0.00 0.00 23 1010.2
20260508171524 81 260 0.0 5.0 0.00 0.00 0.00 24 1010.5
20260508170022 81 126 0.0 3.0 0.00 0.00 0.00 24 1010.7
20260508164521 79 259 0.0 3.0 0.00 0.00 0.00 25 1010.8
20260508163112 80 260 0.0 2.0 0.00 0.00 0.00 25 1010.8
20260508161550 80 139 1.0 4.0 0.00 0.00 0.00 25 1010.9
20260508160042 78 178 0.0 4.0 0.00 0.00 0.00 27 1011.0
20260508154543 77 130 1.0 4.0 0.00 0.00 0.00 27 1010.9
20260508153037 75 130 0.0 5.0 0.00 0.00 0.00 29 1011.1
20260508151539 74 91 2.0 6.0 0.00 0.00 0.00 29 1011.0
20260508150030 72 111 3.0 8.0 0.00 0.00 0.00 30 1011.2
20260508144528 71 96 2.0 7.0 0.00 0.00 0.00 31 1011.2